FW3268 Weather Reports


Display with metric or nautical units.
time (UTC)temp
F
wind
direction
speed
MPH
gust
MPH
rain 1hr
in
rain 24hr
in
rain mn
in
humidity
%
barometer
mb
20260508134501 53 246 7.0 10.0 0.00 0.05 0.05 74 1012.5
20260508133001 53 270 7.0 10.0 0.00 0.05 0.05 77 1012.7
20260508131500 52 229 4.0 7.0 0.00 0.05 0.05 79 1012.6
20260508130003 51 232 3.0 5.0 0.00 0.05 0.05 80 1012.6
20260508124500 51 226 3.0 4.0 0.00 0.05 0.05 78 1012.7
20260508123001 50 238 2.0 4.0 0.00 0.05 0.05 79 1012.7
20260508121501 50 221 2.0 3.0 0.00 0.05 0.05 79 1012.5
20260508120003 49 226 1.0 2.0 0.00 0.05 0.05 82 1012.6
20260508114500 49 245 1.0 1.0 0.00 0.05 0.05 84 1012.6
20260508113002 49 252 2.0 3.0 0.00 0.05 0.05 83 1012.6
20260508111500 49 265 2.0 3.0 0.00 0.05 0.05 83 1012.5
20260508110004 49 240 3.0 4.0 0.02 0.05 0.05 80 1012.5
20260508103000 49 269 3.0 5.0 0.03 0.05 0.05 81 1012.4
20260508101500 50 267 5.0 8.0 0.04 0.05 0.05 79 1012.3
20260508100004 49 250 3.0 5.0 0.03 0.03 0.03 79 1012.3
20260508094500 49 263 2.0 4.0 0.03 0.03 0.03 82 1012.4
20260508093001 49 303 3.0 5.0 0.02 0.02 0.02 82 1012.9
20260508091501 49 300 3.0 6.0 0.01 0.01 0.01 81 1013.1
20260508090002 50 285 5.0 8.0 0.00 0.00 0.00 76 1012.9
20260508084459 50 238 5.0 7.0 0.00 0.00 0.00 81 1012.0
20260508083001 50 250 8.0 13.0 0.00 0.00 0.00 80 1012.1
20260508081501 50 246 10.0 14.0 0.00 0.00 0.00 80 1012.1
20260508080002 52 262 12.0 20.0 0.00 0.00 0.00 74 1012.0
20260508074500 51 269 11.0 17.0 0.00 0.00 0.00 77 1012.1
20260508073000 51 264 10.0 14.0 0.00 0.00 0.00 74 1012.5
20260508071501 50 237 7.0 13.0 0.00 0.00 0.00 74 1012.6
20260508070004 50 245 7.0 9.0 0.00 0.00 0.00 76 1012.5
20260508064459 50 238 6.0 9.0 0.00 0.00 0.00 76 1012.4
20260508061500 50 242 9.0 12.0 0.00 0.00 0.00 76 1012.4
20260508060003 50 243 7.0 11.0 0.00 0.00 0.00 77 1012.5
20260508054459 49 239 5.0 8.0 0.00 0.00 0.00 79 1012.7
20260508051459 48 247 4.0 6.0 0.00 0.00 0.00 82 1012.7
20260508050006 49 234 5.0 7.0 0.00 0.00 0.00 81 1012.7
20260508044502 49 243 4.0 7.0 0.00 0.00 0.00 82 1012.7
20260508034504 48 232 4.0 7.0 0.00 0.00 0.00 81 1012.7
20260508033003 48 252 4.0 7.0 0.00 0.00 0.00 82 1012.7
20260508030005 49 262 3.0 5.0 0.00 0.00 0.00 82 1012.6
20260508024502 49 252 5.0 7.0 0.00 0.00 0.00 82 1012.6
20260508023004 49 242 5.0 7.0 0.00 0.00 0.00 81 1012.5
20260508021502 49 245 6.0 9.0 0.00 0.00 0.00 82 1012.4
20260508020004 50 246 6.0 11.0 0.00 0.00 0.00 81 1012.2
20260508014501 50 229 7.0 11.0 0.00 0.00 0.00 78 1012.0
20260508013001 50 214 7.0 9.0 0.00 0.00 0.00 79 1011.9
20260508010005 51 228 7.0 11.0 0.00 0.00 0.00 77 1011.9
20260508004502 51 228 9.0 12.0 0.00 0.00 0.00 79 1012.1
20260508001503 52 222 6.0 655.0 1.24 0.00 0.00 79
20260508000005 52 231 7.0 11.0 0.00 0.00 0.00 79 1012.4
20260507234501 52 236 7.0 10.0 0.00 0.00 0.00 78 1012.5
20260507233002 52 238 9.0 12.0 0.00 0.00 0.00 77 1012.6
20260507231502 52 252 9.0 13.0 0.00 0.00 0.00 73 1013.1
20260507230006 52 248 6.0 10.0 0.00 0.00 0.00 74 1013.2
20260507224503 52 264 6.0 11.0 0.00 0.00 0.00 77 1013.5
20260507223001 51 290 4.0 9.0 0.00 0.00 0.00 80 1013.5
20260507221501 50 322 8.0 15.0 0.00 0.00 0.00 80 1014.0
20260507220004 55 295 9.0 18.0 0.00 0.00 0.00 59 1013.4
20260507214502 57 288 6.0 11.0 0.00 0.00 0.00 52 1012.5
20260507213001 58 288 8.0 17.0 0.00 0.00 0.00 50 1012.3
20260507211502 59 289 6.0 12.0 0.00 0.00 0.00 51 1012.3
20260507210006 57 281 6.0 13.0 0.00 0.00 0.00 52 1012.6
20260507204502 57 307 8.0 14.0 0.00 0.00 0.00 50 1012.7
20260507203002 57 293 7.0 14.0 0.00 0.00 0.00 48 1012.6
20260507201501 58 272 7.0 11.0 0.00 0.00 0.00 48 1012.8
20260507194501 57 283 8.0 14.0 0.00 0.00 0.00 49 1013.4
20260507193001 57 283 7.0 12.0 0.00 0.00 0.00 50 1013.5
20260507191501 57 274 7.0 12.0 0.00 0.00 0.00 49 1013.7
20260507190005 57 273 8.0 15.0 0.00 0.00 0.00 49 1013.7
20260507184502 56 312 6.0 12.0 0.00 0.00 0.00 52 1013.7
20260507183001 56 279 7.0 13.0 0.00 0.00 0.00 52 1014.0
20260507181501 56 281 3.0 9.0 0.00 0.00 0.00 54 1013.9
20260507174502 55 289 8.0 16.0 0.00 0.00 0.00 56 1014.4
20260507170005 54 301 7.0 11.0 0.00 0.00 0.00 54 1015.0
20260507164501 54 258 5.0 12.0 0.00 0.00 0.00 59 1015.4
20260507154502 52 293 4.0 10.0 0.00 0.00 0.00 59 1015.6
20260507153001 52 293 5.0 11.0 0.00 0.00 0.00 59 1015.6
20260507151501 51 316 5.0 10.0 0.00 0.00 0.00 59 1015.4
20260507150005 50 271 4.0 10.0 0.00 0.00 0.00 57 1015.3
20260507144500 50 281 4.0 9.0 0.00 0.00 0.00 58 1015.6
20260507141500 48 309 4.0 9.0 0.00 0.00 0.00 61 1015.6
20260507140003 48 315 4.0 9.0 0.00 0.00 0.00 63 1015.6